Lapse_Rate
7.6 7.5 7.5 7.6 7.4 7.2 7.1 7.0 6.9 6.7 6.8 6.8 6.6 6.6 6.6 6.6 6.5 6.5 6.6 6.6 6.6 6.6 6.5 6.5 6.5 6.5 6.5 6.4 6.4 6.4 6.5 6.6
7.8 7.6 7.5 7.6 7.5 7.3 7.2 7.1 7.0 6.9 6.6 6.8 6.7 6.5 6.5 6.5 6.5 6.6 6.7 6.7 6.7 6.5 6.5 6.5 6.5 6.4 6.4 6.5 6.6 6.7 6.7 6.8
7.8 7.7 7.7 7.6 7.6 7.4 7.3 7.1 7.1 7.0 6.8 6.7 6.7 6.7 6.6 6.5 6.5 6.6 6.7 6.7 6.6 6.5 6.5 6.4 6.3 6.3 6.5 6.7 6.7 6.7 6.8 6.7
8.0 7.8 7.8 7.7 7.6 7.4 7.3 7.2 7.1 7.0 6.9 6.8 6.5 6.6 6.7 6.6 6.6 6.6 6.5 6.5 6.5 6.5 6.4 6.5 6.4 6.4 6.6 6.6 6.7 6.7 6.7 6.6
8.0 7.9 7.8 7.7 7.7 7.4 7.3 7.3 7.2 7.1 6.9 6.8 6.7 6.5 6.6 6.6 6.5 6.6 6.5 6.4 6.5 6.5 6.6 6.6 6.6 6.6 6.6 6.7 6.7 6.6 6.7 6.5
8.1 7.9 7.9 7.9 7.8 7.5 7.4 7.3 7.3 7.1 6.9 6.8 6.7 6.7 6.6 6.5 6.6 6.5 6.5 6.5 6.5 6.5 6.6 6.6 6.6 6.6 6.6 6.5 6.5 6.5 6.5 6.6
8.3 8.0 8.0 8.0 7.8 7.6 7.4 7.3 7.2 7.2 7.0 6.8 6.6 6.6 6.6 6.5 6.4 6.5 6.5 6.6 6.5 6.6 6.6 6.5 6.5 6.5 6.5 6.5 6.5 6.5 6.3 6.4
8.4 8.3 8.1 8.1 7.9 7.7 7.5 7.3 7.3 7.1 7.1 7.0 6.7 6.6 6.6 6.6 6.5 6.4 6.5 6.6 6.6 6.5 6.4 6.4 6.4 6.4 6.5 6.5 6.5 6.5 6.4 6.3
8.3 8.4 8.2 8.1 8.0 7.8 7.4 7.2 7.3 7.2 7.1 7.0 6.9 6.7 6.5 6.5 6.5 6.5 6.4 6.3 6.4 6.4 6.3 6.3 6.3 6.3 6.3 6.4 6.4 6.5 6.5 6.4
8.4 8.4 8.3 8.2 8.1 7.8 7.7 7.5 7.3 7.3 7.2 7.0 6.9 6.8 6.6 6.5 6.5 6.5 6.4 6.3 6.3 6.3 6.2 6.1 6.1 6.2 6.3 6.4 6.5 6.4 6.4 6.5
8.4 8.4 8.5 8.3 8.1 7.8 7.6 7.7 7.6 7.5 7.2 7.0 7.0 6.9 6.7 6.6 6.5 6.4 6.3 6.3 6.4 6.4 6.3 6.2 6.1 6.1 6.2 6.3 6.4 6.4 6.5 6.3
8.1 8.4 8.3 8.2 8.2 7.8 7.8 7.9 7.8 7.7 7.4 7.1 7.0 6.8 6.8 6.7 6.5 6.4 6.4 6.3 6.3 6.3 6.2 6.1 6.0 6.0 6.1 6.2 6.2 6.2 6.2 6.2
8.2 8.6 8.4 8.3 8.3 8.1 8.0 8.0 7.8 7.8 7.6 7.3 6.9 7.0 6.8 6.7 6.7 6.4 6.3 6.2 6.1 6.1 6.0 5.9 5.9 5.9 6.0 6.1 6.1 6.1 6.1 6.1
8.2 8.3 8.4 8.5 8.4 8.3 8.2 8.0 7.9 7.7 7.4 7.3 7.1 7.0 6.8 6.6 6.5 6.4 6.2 6.2 6.0 5.8 5.9 5.8 5.9 5.9 6.0 6.0 6.1 6.2 6.2 5.9
8.0 8.2 8.3 8.3 8.3 8.2 8.1 8.0 7.9 7.8 7.7 7.5 7.3 6.9 6.6 6.6 6.4 6.4 6.2 6.1 5.9 5.8 5.8 5.8 5.8 5.9 6.0 5.9 5.8 5.6 5.8 6.0
7.9 8.0 7.9 8.0 7.9 8.0 8.1 8.1 7.9 7.7 7.6 7.4 7.1 6.9 6.7 6.5 6.3 6.2 6.1 6.0 5.8 5.8 5.8 5.7 5.7 5.8 5.9 5.8 5.7 5.6 5.4 5.2
7.8 7.7 7.5 7.6 7.4 7.6 7.8 7.8 7.6 7.4 7.3 7.1 7.2 6.8 6.6 6.4 6.3 6.1 6.1 5.9 5.9 5.7 5.7 5.7 5.6 5.7 5.7 5.7 5.6 5.5 5.6 5.5
7.5 7.4 7.3 7.3 7.3 7.2 7.4 7.4 7.4 7.3 7.2 7.3 7.0 6.7 6.5 6.2 6.1 6.0 5.9 5.8 5.7 5.7 5.7 5.6 5.5 5.5 5.4 5.4 5.5 5.4 5.4 5.3
7.4 7.5 7.4 7.5 7.6 7.4 7.3 7.4 7.1 7.0 6.8 6.8 6.5 6.5 6.4 6.0 5.8 5.7 5.8 5.7 5.7 5.6 5.5 5.4 5.3 5.3 5.2 5.4 5.5 5.4 5.3 5.3
7.4 7.6 7.5 7.5 7.8 7.7 7.5 7.1 6.6 6.6 6.7 6.5 6.1 6.2 6.1 5.8 5.5 5.5 5.6 5.6 5.5 5.4 5.3 5.2 5.0 5.0 5.2 5.5 5.5 5.4 5.2 5.2
Wind_Speed
18 20 19 19 19 19 19 18 20 19 20 19 17 16 16 15 14 14 14 13 13 13 12 12 11 11 10 9 9 10 7 11
15 18 19 18 17 19 20 20 21 21 20 20 18 17 16 15 15 13 13 12 12 11 11 11 11 11 8 4 4 7 9 13
14 13 15 16 18 19 21 22 21 21 20 20 22 14 13 11 14 12 12 12 11 10 8 8 8 11 8 2 9 7 10 15
11 11 11 16 19 20 19 20 18 17 16 16 10 12 10 12 11 11 11 12 11 9 6 8 11 3 5 2 8 6 13 15
13 13 12 13 12 16 16 16 16 15 15 13 11 9 11 12 11 11 9 12 9 8 5 5 5 4 5 5 6 5 13 14
16 15 11 11 14 12 15 11 14 12 14 12 12 9 9 7 7 6 5 4 4 4 6 6 6 5 6 6 5 5 10 14
16 15 12 11 12 10 11 9 12 14 15 14 12 9 6 7 6 6 5 6 5 4 5 5 5 5 6 7 8 7 6 12
16 17 17 15 13 12 10 12 14 14 15 15 11 10 9 7 6 6 6 6 5 3 3 4 4 5 6 6 6 7 7 5
19 19 18 16 15 12 9 13 15 12 13 15 14 11 11 9 6 5 6 7 7 7 4 4 4 5 5 6 7 6 7 6
18 17 19 18 15 12 10 12 14 12 13 15 15 13 12 10 6 5 8 8 7 5 4 4 4 4 4 4 4 6 7 7
19 18 20 19 16 13 11 13 9 13 15 14 16 15 13 10 7 7 10 7 5 5 3 4 4 4 5 4 3 4 4 6
18 15 19 19 13 11 10 11 10 14 12 13 16 15 14 11 9 9 9 6 5 5 5 3 4 4 5 4 3 3 3 3
20 19 19 15 14 13 12 12 11 10 9 16 16 15 14 12 9 9 8 7 7 7 7 7 5 5 5 4 3 3 2 2
21 20 20 18 14 13 12 11 11 10 9 14 16 16 15 12 9 8 8 6 7 7 7 5 4 3 4 5 4 5 5 4
18 19 20 21 19 13 12 10 10 11 11 11 12 17 15 13 12 8 8 7 7 7 7 7 5 4 2 3 3 3 6 6
18 18 17 18 20 17 19 14 13 11 11 11 11 16 15 14 13 11 8 5 7 6 5 4 5 5 4 1 2 3 3 4
16 18 17 16 15 15 13 15 11 12 11 14 13 13 15 14 13 12 8 6 7 6 6 4 3 4 3 3 1 1 0 3
15 17 18 18 16 14 16 16 15 12 12 12 11 10 10 12 14 11 10 6 7 6 6 5 4 4 3 2 3 1 3 3
14 16 17 18 18 16 15 16 17 16 16 12 14 11 11 12 12 10 8 9 8 7 6 6 6 5 4 3 2 2 1 1
16 17 16 17 17 17 13 16 12 12 14 11 11 11 11 15 12 11 11 12 10 7 5 5 5 4 5 3 4 2 1 1
Wind_Direction
154 156 147 130 128 130 127 125 120 117 119 120 123 119 116 112 107 103 99 97 96 95 90 83 74 66 55 40 27 0 39 61
161 155 154 148 139 129 126 124 121 121 123 125 121 114 116 118 114 103 104 102 102 102 98 91 86 74 57 26 316 298 50 61
160 157 156 150 143 137 128 128 126 128 134 141 149 142 141 133 90 110 109 105 102 102 110 117 119 99 81 0 300 48 74 64
159 159 157 161 159 160 153 149 154 160 158 168 183 144 128 120 117 121 121 125 124 128 149 186 198 153 108 216 66 77 71 70
167 166 166 179 153 172 166 170 169 162 168 173 148 139 139 150 151 164 157 187 163 177 160 74 52 26 74 58 105 93 91 77
173 173 175 197 163 178 171 172 168 166 168 167 160 173 178 175 168 145 174 128 135 128 99 91 96 87 89 89 67 86 104 99
178 176 178 189 183 184 178 172 172 168 157 173 178 168 169 178 157 167 136 145 135 127 125 125 117 94 88 89 85 82 83 112
181 184 182 185 190 178 179 171 169 162 168 167 177 174 168 157 167 158 149 139 124 134 136 138 99 103 97 85 80 86 72 59
186 184 182 183 188 180 179 178 163 171 166 162 169 171 172 166 162 168 145 125 131 140 157 140 130 117 113 119 118 103 96 85
179 184 184 184 176 179 181 166 177 167 157 168 165 166 170 177 168 161 153 161 156 154 161 151 147 144 134 132 112 113 107 95
177 186 184 183 177 179 174 168 173 165 168 168 166 166 171 176 168 150 176 162 157 155 158 168 155 149 136 129 124 125 125 90
175 184 185 183 172 173 172 174 173 169 172 169 168 167 173 172 160 162 178 161 162 160 149 163 158 147 139 127 119 113 104 107
178 186 185 185 179 178 176 181 175 174 173 164 176 166 172 173 163 169 181 172 151 160 149 154 146 156 150 145 143 159 194 139
182 189 186 193 187 183 181 180 176 177 171 171 177 169 171 175 169 172 179 151 162 174 170 151 136 185 233 188 189 181 193 207
190 189 187 194 192 184 178 176 171 178 174 178 177 173 177 178 178 170 171 170 166 170 182 183 158 149 260 286 232 237 153 160
182 191 195 196 197 188 185 182 181 184 174 178 172 175 177 175 176 170 176 173 162 165 178 176 171 160 160 168 351 348 243 187
183 189 192 198 209 196 183 186 193 184 176 171 174 175 175 176 174 175 174 169 163 153 151 166 189 162 204 163 175 128 258 293
184 189 192 192 197 203 189 198 194 184 172 174 176 173 173 178 177 175 170 159 159 156 145 150 138 140 134 166 199 217 218 259
194 195 200 187 189 202 201 197 198 186 174 178 177 175 177 176 175 173 167 160 158 150 151 141 150 148 151 147 131 116 340 282
202 206 210 191 188 201 203 204 208 192 184 179 179 180 178 167 176 171 164 157 154 149 147 149 125 132 142 162 127 119 252 304